This is the latest recevied weather packets stored in our database for station/object W3TMB. If no packets are shown the sender has not sent any weather packets the latest 10 day(s).
| Time | Temp. | Humidity | Pressure | Rain* | Wind** | Luminosity | Snow |
|---|---|---|---|---|---|---|---|
| 1777474309 | 13.33° C | 84% | 1010.5 hPa | 0 mm | - | 71 W/m² | - |
| 1777474006 | 13.33° C | 84% | 1010.7 hPa | 0 mm | - | 65 W/m² | - |
| 1777473704 | 13.33° C | 84% | 1010.6 hPa | 0 mm | - | 69 W/m² | - |
| 1777473400 | 13.33° C | 84% | 1010.8 hPa | 0 mm | - | 80 W/m² | - |
| 1777473096 | 13.33° C | 85% | 1010.8 hPa | 0 mm | - | 74 W/m² | - |
| 1777472793 | 13.33° C | 85% | 1011 hPa | 0 mm | - | 68 W/m² | - |
| 1777472489 | 12.78° C | 85% | 1011 hPa | 0 mm | - | 61 W/m² | - |
| 1777472187 | 12.78° C | 84% | 1011 hPa | 0 mm | - | 58 W/m² | - |
| 1777471887 | 12.78° C | 84% | 1010.7 hPa | 0 mm | - | 71 W/m² | - |
| 1777471584 | 12.78° C | 84% | 1010.9 hPa | 0 mm | - | 62 W/m² | - |
| 1777471281 | 12.78° C | 84% | 1011.2 hPa | 0 mm | - | 53 W/m² | - |
| 1777470977 | 12.78° C | 84% | 1010.8 hPa | 0 mm | - | 55 W/m² | - |
| 1777470675 | 12.78° C | 84% | 1010.7 hPa | 0 mm | - | 68 W/m² | - |
| 1777470370 | 12.78° C | 84% | 1010.9 hPa | 0 mm | - | 60 W/m² | - |
| 1777470067 | 12.78° C | 84% | 1010.9 hPa | 0 mm | - | 51 W/m² | - |
| 1777469763 | 12.78° C | 84% | 1011.2 hPa | 0 mm | - | 72 W/m² | - |
| 1777469459 | 12.78° C | 82% | 1010.9 hPa | 0 mm | - | 68 W/m² | - |
| 1777469154 | 12.78° C | 83% | 1011.3 hPa | 0 mm | - | 72 W/m² | - |
| 1777468854 | 12.78° C | 83% | 1011.2 hPa | 0 mm | - | 58 W/m² | - |
| 1777468551 | 12.78° C | 82% | 1011 hPa | 0 mm | - | 53 W/m² | - |
| 1777468248 | 12.78° C | 83% | 1010.7 hPa | 0 mm | - | 72 W/m² | - |
| 1777467944 | 12.78° C | 83% | 1011.1 hPa | 0 mm | - | 70 W/m² | - |
| 1777467639 | 12.78° C | 82% | 1011.1 hPa | 0 mm | - | 51 W/m² | - |
| 1777467335 | 12.78° C | 83% | 1011.2 hPa | 0 mm | - | 60 W/m² | - |
| 1777467031 | 12.78° C | 83% | 1011.2 hPa | 0 mm | - | 63 W/m² | - |
* Rain latest hour (hover to see other rain measurements)
** Current wind speed in m/s (hover to see current wind gust speed)